Time,TemperatureF,DewpointF,PressureIn,WindDirection,WindDirectionDegrees,WindSpeedMPH,WindSpeedGustMPH,Humidity,HourlyPrecipIn,Conditions,Clouds,dailyrainin,SoftwareType,DateUTC
2013-06-25 00:00:00,64.4,60.8,29.91,NNW,338,0.0,1.0,88,0.00,,---,0.00,VWS V14.01,2013-06-25 07:00:00,
2013-06-25 00:02:00,64.4,61.0,29.91,NNW,327,0.0,0.0,88,0.00,,,0.00,weatherlink.com 1.10,2013-06-25 07:02:00,
2013-06-25 00:15:00,64.2,60.9,29.91,NNW,338,0.0,2.0,89,0.00,,---,0.00,VWS V14.01,2013-06-25 07:15:00,
2013-06-25 00:17:00,64.2,61.0,29.91,NNW,327,1.0,2.0,89,0.00,,,0.00,weatherlink.com 1.10,2013-06-25 07:17:00,
2013-06-25 00:30:00,64.1,60.8,29.91,NNW,338,0.0,2.0,89,0.00,,---,0.00,VWS V14.01,2013-06-25 07:30:00,
2013-06-25 00:32:00,64.1,61.0,29.91,NNW,327,0.0,2.0,89,0.00,,,0.00,weatherlink.com 1.10,2013-06-25 07:32:00,
2013-06-25 00:45:00,64.0,61.0,29.91,NNW,338,0.0,1.0,90,0.00,,---,0.00,VWS V14.01,2013-06-25 07:45:00,
2013-06-25 00:47:00,63.9,61.0,29.91,NNW,327,0.0,1.0,89,0.00,,,0.00,weatherlink.com 1.10,2013-06-25 07:47:00,
2013-06-25 01:00:00,63.6,60.6,29.91,NNW,338,0.0,1.0,90,0.00,,---,0.00,VWS V14.01,2013-06-25 08:00:00,
2013-06-25 01:02:00,63.6,61.0,29.91,NNW,327,0.0,1.0,90,0.00,,,0.00,weatherlink.com 1.10,2013-06-25 08:02:00,
2013-06-25 01:15:00,63.4,60.7,29.91,NNW,338,0.0,1.0,91,0.00,,---,0.00,VWS V14.01,2013-06-25 08:15:00,
2013-06-25 01:17:00,63.4,61.0,29.91,NNW,327,0.0,1.0,91,0.00,,,0.00,weatherlink.com 1.10,2013-06-25 08:17:00,
2013-06-25 01:30:00,63.2,60.2,29.91,NNW,338,0.0,1.0,90,0.00,,---,0.00,VWS V14.01,2013-06-25 08:30:00,
2013-06-25 01:32:00,63.1,60.0,29.91,NNW,327,0.0,0.0,90,0.00,,,0.00,weatherlink.com 1.10,2013-06-25 08:32:00,
2013-06-25 01:45:00,62.8,60.1,29.91,NNW,338,0.0,1.0,91,0.00,,---,0.00,VWS V14.01,2013-06-25 08:45:00,
2013-06-25 01:47:00,62.7,60.0,29.91,NNW,327,0.0,0.0,91,0.00,,,0.00,weatherlink.com 1.10,2013-06-25 08:47:00,
2013-06-25 02:00:00,62.4,59.7,29.92,NNW,338,0.0,0.0,91,0.00,,---,0.00,VWS V14.01,2013-06-25 09:00:00,
2013-06-25 02:02:00,62.3,60.0,29.92,NNW,327,0.0,0.0,92,0.00,,,0.00,weatherlink.com 1.10,2013-06-25 09:02:00,
2013-06-25 02:15:00,62.1,59.8,29.92,NNW,338,0.0,1.0,92,0.00,,---,0.00,VWS V14.01,2013-06-25 09:15:00,
2013-06-25 02:17:00,62.0,60.0,29.92,NNW,327,0.0,1.0,92,0.00,,,0.00,weatherlink.com 1.10,2013-06-25 09:17:00,
2013-06-25 02:30:00,62.0,60.0,29.92,NNW,338,0.0,1.0,93,0.00,,---,0.00,VWS V14.01,2013-06-25 09:30:00,
2013-06-25 02:32:00,62.0,60.0,29.92,NNW,327,0.0,0.0,92,0.00,,,0.00,weatherlink.com 1.10,2013-06-25 09:32:00,
2013-06-25 02:45:00,61.7,59.7,29.92,NNW,338,0.0,0.0,93,0.00,,---,0.00,VWS V14.01,2013-06-25 09:45:00,
2013-06-25 02:47:00,61.7,60.0,29.92,NNW,327,0.0,0.0,93,0.00,,,0.00,weatherlink.com 1.10,2013-06-25 09:47:00,
2013-06-25 03:00:00,61.7,60.0,29.92,NNW,338,0.0,1.0,94,0.00,,---,0.00,VWS V14.01,2013-06-25 10:00:00,
2013-06-25 03:02:00,61.8,60.0,29.92,NNW,327,0.0,1.0,94,0.00,,,0.00,weatherlink.com 1.10,2013-06-25 10:02:00,
2013-06-25 03:15:00,62.3,60.8,29.92,NNW,338,0.0,1.0,95,0.00,,---,0.00,VWS V14.01,2013-06-25 10:15:00,
2013-06-25 03:17:00,62.5,61.0,29.92,NNW,327,0.0,2.0,94,0.00,,,0.00,weatherlink.com 1.10,2013-06-25 10:17:00,
2013-06-25 03:30:00,62.8,61.0,29.92,NNW,338,0.0,2.0,94,0.00,,---,0.00,VWS V14.01,2013-06-25 10:30:00,
2013-06-25 03:32:00,62.8,61.0,29.92,NNW,327,0.0,2.0,94,0.00,,,0.00,weatherlink.com 1.10,2013-06-25 10:32:00,
2013-06-25 03:45:00,63.0,61.0,29.92,NNW,338,0.0,2.0,93,0.00,,---,0.00,VWS V14.01,2013-06-25 10:45:00,
2013-06-25 03:47:00,63.0,61.0,29.92,NNW,327,1.0,1.0,93,0.00,,,0.00,weatherlink.com 1.10,2013-06-25 10:47:00,
2013-06-25 04:00:00,63.1,61.0,29.92,NNW,338,0.0,1.0,93,0.00,,---,0.00,VWS V14.01,2013-06-25 11:00:00,
2013-06-25 04:03:00,63.1,61.0,29.92,NNW,327,0.0,1.0,93,0.00,,,0.00,weatherlink.com 1.10,2013-06-25 11:03:00,
2013-06-25 04:15:00,63.2,61.2,29.92,NNW,338,0.0,2.0,93,0.00,,---,0.00,VWS V14.01,2013-06-25 11:15:00,
2013-06-25 04:17:00,63.2,61.0,29.92,NNW,327,0.0,2.0,93,0.00,,,0.00,weatherlink.com 1.10,2013-06-25 11:17:00,
2013-06-25 04:30:00,63.2,61.2,29.93,NNW,338,0.0,0.0,93,0.00,,---,0.00,VWS V14.01,2013-06-25 11:30:00,
2013-06-25 04:32:00,63.2,61.0,29.93,NNW,327,0.0,0.0,92,0.00,,,0.00,weatherlink.com 1.10,2013-06-25 11:32:00,
2013-06-25 04:45:00,63.1,60.7,29.93,NNW,338,0.0,0.0,92,0.00,,---,0.00,VWS V14.01,2013-06-25 11:45:00,
2013-06-25 04:47:00,63.1,61.0,29.93,NNW,327,0.0,0.0,92,0.00,,,0.00,weatherlink.com 1.10,2013-06-25 11:47:00,
2013-06-25 05:00:00,63.2,61.2,29.93,NNW,338,0.0,1.0,93,0.00,,---,0.00,VWS V14.01,2013-06-25 12:00:00,
2013-06-25 05:02:00,63.2,61.0,29.93,NNW,327,0.0,1.0,93,0.00,,,0.00,weatherlink.com 1.10,2013-06-25 12:02:00,
2013-06-25 05:15:00,63.4,61.3,29.93,NNW,338,0.0,1.0,93,0.00,,---,0.00,VWS V14.01,2013-06-25 12:15:00,
2013-06-25 05:17:00,63.5,61.0,29.93,NNW,327,0.0,1.0,92,0.00,,,0.00,weatherlink.com 1.10,2013-06-25 12:17:00,
2013-06-25 05:30:00,63.7,61.3,29.93,NNW,338,0.0,1.0,92,0.00,,---,0.00,VWS V14.01,2013-06-25 12:30:00,
2013-06-25 05:32:00,63.7,61.0,29.93,NNW,327,0.0,0.0,92,0.00,,,0.00,weatherlink.com 1.10,2013-06-25 12:32:00,
2013-06-25 05:45:00,63.8,61.4,29.94,NNW,338,0.0,0.0,92,0.00,,---,0.00,VWS V14.01,2013-06-25 12:45:00,
2013-06-25 05:47:00,63.9,62.0,29.94,NNW,327,0.0,0.0,92,0.00,,,0.00,weatherlink.com 1.10,2013-06-25 12:47:00,
2013-06-25 06:00:00,63.9,61.5,29.94,NNW,338,0.0,0.0,92,0.00,,---,0.00,VWS V14.01,2013-06-25 13:00:00,
2013-06-25 06:02:00,64.0,62.0,29.94,NNW,327,0.0,0.0,92,0.00,,,0.00,weatherlink.com 1.10,2013-06-25 13:02:00,
2013-06-25 06:15:00,64.1,61.7,29.94,NNW,338,0.0,0.0,92,0.00,,---,0.00,VWS V14.01,2013-06-25 13:15:00,
2013-06-25 06:17:00,64.1,62.0,29.94,NNW,327,0.0,0.0,92,0.00,,,0.00,weatherlink.com 1.10,2013-06-25 13:17:00,
2013-06-25 06:30:00,64.2,61.5,29.95,NNW,338,0.0,0.0,91,0.00,,---,0.00,VWS V14.01,2013-06-25 13:30:00,
2013-06-25 06:32:00,64.3,62.0,29.94,NNW,327,0.0,1.0,92,0.00,,,0.00,weatherlink.com 1.10,2013-06-25 13:32:00,
2013-06-25 06:45:00,64.4,61.7,29.94,NNW,338,0.0,1.0,91,0.00,,---,0.00,VWS V14.01,2013-06-25 13:45:00,
2013-06-25 06:47:00,64.5,62.0,29.94,NNW,327,0.0,1.0,91,0.00,,,0.00,weatherlink.com 1.10,2013-06-25 13:47:00,
2013-06-25 07:00:00,64.6,61.9,29.94,NNW,338,0.0,1.0,91,0.00,,---,0.00,VWS V14.01,2013-06-25 14:00:00,
2013-06-25 07:02:00,64.7,62.0,29.95,NNW,327,0.0,1.0,91,0.00,,,0.00,weatherlink.com 1.10,2013-06-25 14:02:00,
2013-06-25 07:15:00,64.9,61.9,29.95,NNE,22,0.0,2.0,90,0.00,,---,0.00,VWS V14.01,2013-06-25 14:15:00,
2013-06-25 07:17:00,64.9,62.0,29.95,NNE,19,0.0,1.0,90,0.00,,,0.00,weatherlink.com 1.10,2013-06-25 14:17:00,
2013-06-25 07:30:00,65.1,62.1,29.96,NNE,22,0.0,1.0,90,0.00,,---,0.00,VWS V14.01,2013-06-25 14:30:00,
2013-06-25 07:32:00,65.2,62.0,29.96,NNE,19,0.0,1.0,90,0.00,,,0.00,weatherlink.com 1.10,2013-06-25 14:32:00,
2013-06-25 07:45:00,65.3,62.0,29.96,NNE,22,0.0,1.0,89,0.00,,---,0.00,VWS V14.01,2013-06-25 14:45:00,
2013-06-25 07:47:00,65.4,62.0,29.96,NNE,19,0.0,1.0,89,0.00,,,0.00,weatherlink.com 1.10,2013-06-25 14:47:00,
2013-06-25 08:00:00,65.6,62.3,29.96,NNE,22,0.0,2.0,89,0.00,,---,0.00,VWS V14.01,2013-06-25 15:00:00,
2013-06-25 08:02:00,65.6,62.0,29.96,NNE,20,1.0,2.0,89,0.00,,,0.00,weatherlink.com 1.10,2013-06-25 15:02:00,
2013-06-25 08:15:00,65.7,62.4,29.96,WSW,248,1.0,4.0,89,0.00,,---,0.00,VWS V14.01,2013-06-25 15:15:00,
2013-06-25 08:17:00,65.8,63.0,29.96,WSW,242,0.0,4.0,90,0.00,,,0.00,weatherlink.com 1.10,2013-06-25 15:17:00,
2013-06-25 08:30:00,65.8,62.8,29.97,WSW,248,1.0,6.0,90,0.00,,---,0.00,VWS V14.01,2013-06-25 15:30:00,
2013-06-25 08:33:00,65.8,63.0,29.97,SW,223,2.0,6.0,90,0.00,,,0.00,weatherlink.com 1.10,2013-06-25 15:33:00,
2013-06-25 08:45:00,65.8,62.8,29.97,WSW,248,1.0,6.0,90,0.00,,---,0.00,VWS V14.01,2013-06-25 15:45:00,
2013-06-25 08:48:00,65.8,63.0,29.97,WSW,255,0.0,4.0,90,0.00,,,0.00,weatherlink.com 1.10,2013-06-25 15:48:00,
2013-06-25 09:00:00,65.8,62.8,29.97,WSW,248,1.0,4.0,90,0.00,,---,0.00,VWS V14.01,2013-06-25 16:00:00,
2013-06-25 09:03:00,65.8,63.0,29.97,WSW,246,1.0,4.0,90,0.00,,,0.00,weatherlink.com 1.10,2013-06-25 16:03:00,
2013-06-25 09:15:00,66.0,63.0,29.98,WSW,248,1.0,3.0,90,0.00,,---,0.00,VWS V14.01,2013-06-25 16:15:00,
2013-06-25 09:18:00,66.0,63.0,29.98,WSW,247,0.0,6.0,90,0.00,,,0.00,weatherlink.com 1.10,2013-06-25 16:18:00,
2013-06-25 09:30:00,66.0,63.0,29.98,WSW,248,2.0,6.0,90,0.00,,---,0.00,VWS V14.01,2013-06-25 16:30:00,
2013-06-25 09:33:00,66.1,63.0,29.98,SW,236,1.0,6.0,90,0.00,,,0.00,weatherlink.com 1.10,2013-06-25 16:33:00,
2013-06-25 09:45:00,66.1,63.1,29.98,SW,225,2.0,7.0,90,0.00,,---,0.00,VWS V14.01,2013-06-25 16:45:00,
2013-06-25 09:48:00,66.2,63.0,29.98,WSW,240,4.0,7.0,90,0.00,,,0.00,weatherlink.com 1.10,2013-06-25 16:48:00,
2013-06-25 10:00:00,66.6,63.3,29.98,WSW,248,2.0,7.0,89,0.00,,---,0.00,VWS V14.01,2013-06-25 17:00:00,
2013-06-25 10:03:00,66.7,63.0,29.98,SW,215,2.0,6.0,89,0.00,,,0.00,weatherlink.com 1.10,2013-06-25 17:03:00,
2013-06-25 10:15:00,67.0,63.3,29.98,SW,225,2.0,7.0,88,0.00,,---,0.00,VWS V14.01,2013-06-25 17:15:00,
2013-06-25 10:18:00,67.2,64.0,29.98,WSW,244,1.0,7.0,88,0.00,,,0.00,weatherlink.com 1.10,2013-06-25 17:18:00,
2013-06-25 10:30:00,67.7,63.7,29.98,WSW,248,2.0,7.0,87,0.00,,---,0.00,VWS V14.01,2013-06-25 17:30:00,
2013-06-25 10:33:00,67.9,64.0,29.98,SSW,199,1.0,7.0,86,0.00,,,0.00,weatherlink.com 1.10,2013-06-25 17:33:00,
2013-06-25 10:45:00,68.3,63.6,29.98,SSW,202,3.0,7.0,85,0.00,,---,0.00,VWS V14.01,2013-06-25 17:45:00,
2013-06-25 10:48:00,68.2,64.0,29.98,SW,221,2.0,6.0,86,0.00,,,0.00,weatherlink.com 1.10,2013-06-25 17:48:00,
2013-06-25 11:00:00,68.3,64.0,29.98,WSW,248,2.0,8.0,86,0.00,,---,0.00,VWS V14.01,2013-06-25 18:00:00,
2013-06-25 11:03:00,68.4,64.0,29.98,SSW,201,0.0,8.0,85,0.00,,,0.00,weatherlink.com 1.10,2013-06-25 18:03:00,
2013-06-25 11:15:00,68.7,64.0,29.98,SSW,202,2.0,6.0,85,0.00,,---,0.00,VWS V14.01,2013-06-25 18:15:00,
2013-06-25 11:18:00,68.6,64.0,29.98,SW,215,1.0,9.0,84,0.00,,,0.00,weatherlink.com 1.10,2013-06-25 18:18:00,
2013-06-25 11:30:00,69.1,64.1,29.98,WSW,248,3.0,9.0,84,0.00,,---,0.00,VWS V14.01,2013-06-25 18:30:00,
2013-06-25 11:33:00,69.4,64.0,29.98,SSW,205,3.0,7.0,83,0.00,,,0.00,weatherlink.com 1.10,2013-06-25 18:33:00,
2013-06-25 11:45:00,69.4,64.0,29.98,WSW,248,4.0,9.0,83,0.00,,---,0.00,VWS V14.01,2013-06-25 18:45:00,
2013-06-25 11:48:00,69.5,64.0,29.98,South,184,4.0,10.0,83,0.00,,,0.00,weatherlink.com 1.10,2013-06-25 18:48:00,
2013-06-25 12:00:00,69.9,64.2,29.98,SSW,202,4.0,10.0,82,0.00,,---,0.00,VWS V14.01,2013-06-25 19:00:00,
2013-06-25 12:03:00,70.1,64.0,29.98,SSW,199,7.0,10.0,81,0.00,,,0.00,weatherlink.com 1.10,2013-06-25 19:03:00,
2013-06-25 12:15:00,70.3,64.2,29.98,SSW,202,4.0,10.0,81,0.00,,---,0.00,VWS V14.01,2013-06-25 19:15:00,
2013-06-25 12:18:00,70.4,64.0,29.98,SW,223,2.0,10.0,80,0.00,,,0.00,weatherlink.com 1.10,2013-06-25 19:18:00,
2013-06-25 12:30:00,70.1,64.0,29.98,SSW,202,4.0,10.0,81,0.00,,---,0.00,VWS V14.01,2013-06-25 19:30:00,
2013-06-25 12:33:00,70.4,64.0,29.98,West,262,3.0,10.0,81,0.00,,,0.00,weatherlink.com 1.10,2013-06-25 19:33:00,
2013-06-25 12:45:00,70.6,64.1,29.98,SSW,202,4.0,10.0,80,0.00,,---,0.00,VWS V14.01,2013-06-25 19:45:00,
2013-06-25 12:48:00,70.4,64.0,29.98,SSW,206,4.0,11.0,81,0.00,,,0.00,weatherlink.com 1.10,2013-06-25 19:48:00,
2013-06-25 13:00:00,70.3,63.8,29.98,SW,225,4.0,11.0,80,0.00,,---,0.00,VWS V14.01,2013-06-25 20:00:00,
2013-06-25 13:03:00,70.1,64.0,29.98,SW,230,4.0,11.0,80,0.00,,,0.00,weatherlink.com 1.10,2013-06-25 20:03:00,
2013-06-25 13:15:00,69.9,64.2,29.98,SW,225,4.0,11.0,82,0.00,,---,0.00,VWS V14.01,2013-06-25 20:15:00,
2013-06-25 13:18:00,69.7,64.0,29.98,SW,225,1.0,9.0,82,0.00,,,0.00,weatherlink.com 1.10,2013-06-25 20:18:00,
2013-06-25 13:30:00,69.7,64.0,29.98,SW,225,4.0,9.0,82,0.00,,---,0.00,VWS V14.01,2013-06-25 20:30:00,
2013-06-25 13:33:00,69.7,64.0,29.98,SSW,209,3.0,10.0,82,0.00,,,0.00,weatherlink.com 1.10,2013-06-25 20:33:00,
2013-06-25 13:45:00,70.0,63.9,29.98,SSW,202,4.0,11.0,81,0.00,,---,0.00,VWS V14.01,2013-06-25 20:45:00,
2013-06-25 13:48:00,69.8,63.0,29.98,WNW,294,4.0,9.0,80,0.00,,,0.00,weatherlink.com 1.10,2013-06-25 20:48:00,
2013-06-25 14:00:00,69.9,63.5,29.97,SSW,202,4.0,9.0,80,0.00,,---,0.00,VWS V14.01,2013-06-25 21:00:00,
2013-06-25 14:03:00,70.1,64.0,29.97,SSW,207,5.0,8.0,80,0.00,,,0.00,weatherlink.com 1.10,2013-06-25 21:03:00,
2013-06-25 14:15:00,70.6,63.8,29.97,SSW,202,4.0,10.0,79,0.00,,---,0.00,VWS V14.01,2013-06-25 21:15:00,
2013-06-25 14:18:00,70.6,64.0,29.96,South,189,7.0,8.0,79,0.00,,,0.00,weatherlink.com 1.10,2013-06-25 21:18:00,
2013-06-25 14:30:00,71.1,64.3,29.96,SSW,202,4.0,9.0,79,0.00,,---,0.00,VWS V14.01,2013-06-25 21:30:00,
2013-06-25 14:33:00,71.4,64.0,29.96,SSW,212,8.0,9.0,78,0.00,,,0.00,weatherlink.com 1.10,2013-06-25 21:33:00,
2013-06-25 14:45:00,72.1,64.1,29.96,SSW,202,4.0,9.0,76,0.00,,---,0.00,VWS V14.01,2013-06-25 21:45:00,
2013-06-25 14:48:00,72.2,64.0,29.95,SW,227,2.0,7.0,76,0.00,,,0.00,weatherlink.com 1.10,2013-06-25 21:48:00,
2013-06-25 15:00:00,73.3,64.5,29.95,SSW,202,2.0,7.0,74,0.00,,---,0.00,VWS V14.01,2013-06-25 22:00:00,
2013-06-25 15:03:00,73.5,65.0,29.95,WSW,243,0.0,7.0,74,0.00,,,0.00,weatherlink.com 1.10,2013-06-25 22:03:00,
2013-06-25 15:15:00,75.0,65.8,29.94,WSW,248,2.0,7.0,73,0.00,,---,0.00,VWS V14.01,2013-06-25 22:15:00,
2013-06-25 15:19:00,75.0,65.0,29.94,SSW,197,7.0,8.0,72,0.00,,,0.00,weatherlink.com 1.10,2013-06-25 22:19:00,
2013-06-25 15:30:00,76.0,65.5,29.93,SSW,202,4.0,9.0,70,0.00,,---,0.00,VWS V14.01,2013-06-25 22:30:00,
2013-06-25 15:33:00,76.0,66.0,29.93,SW,227,1.0,9.0,70,0.00,,,0.00,weatherlink.com 1.10,2013-06-25 22:33:00,
2013-06-25 15:45:00,76.4,65.1,29.92,SW,225,3.0,8.0,68,0.00,,---,0.00,VWS V14.01,2013-06-25 22:45:00,
2013-06-25 15:48:00,76.7,66.0,29.92,WSW,240,5.0,8.0,69,0.00,,,0.00,weatherlink.com 1.10,2013-06-25 22:48:00,
2013-06-25 16:00:00,76.2,65.3,29.92,WSW,248,4.0,10.0,69,0.00,,---,0.00,VWS V14.01,2013-06-25 23:00:00,
2013-06-25 16:03:00,76.1,65.0,29.92,SW,232,2.0,8.0,69,0.00,,,0.00,weatherlink.com 1.10,2013-06-25 23:03:00,
2013-06-25 16:15:00,76.6,65.3,29.92,WSW,248,4.0,9.0,68,0.00,,---,0.00,VWS V14.01,2013-06-25 23:15:00,
2013-06-25 16:18:00,76.7,65.0,29.91,SW,217,4.0,9.0,67,0.00,,,0.00,weatherlink.com 1.10,2013-06-25 23:18:00,
2013-06-25 16:30:00,76.0,64.3,29.91,SSW,202,5.0,13.0,67,0.00,,---,0.00,VWS V14.01,2013-06-25 23:30:00,
2013-06-25 16:33:00,75.6,64.0,29.91,West,266,6.0,10.0,68,0.00,,,0.00,weatherlink.com 1.10,2013-06-25 23:33:00,
2013-06-25 16:45:00,75.1,64.7,29.91,SSW,202,5.0,13.0,70,0.00,,---,0.00,VWS V14.01,2013-06-25 23:45:00,
2013-06-25 16:48:00,74.6,65.0,29.91,SW,231,3.0,12.0,71,0.00,,,0.00,weatherlink.com 1.10,2013-06-25 23:48:00,
2013-06-25 17:00:00,74.7,64.7,29.90,SSW,202,4.0,10.0,71,0.00,,---,0.00,VWS V14.01,2013-06-26 00:00:00,
2013-06-25 17:03:00,74.7,65.0,29.90,SW,219,1.0,9.0,71,0.00,,,0.00,weatherlink.com 1.10,2013-06-26 00:03:00,
2013-06-25 17:15:00,75.6,64.7,29.90,SW,225,3.0,9.0,69,0.00,,---,0.00,VWS V14.01,2013-06-26 00:15:00,
2013-06-25 17:19:00,74.7,64.7,29.90,SSW,202,4.0,10.0,71,0.00,,---,0.00,VWS V14.01,2013-06-26 00:19:00,
2013-06-25 17:24:00,76.6,65.3,29.89,SSW,203,3.0,5.0,68,0.00,,---,0.00,VWS V14.01,2013-06-26 00:24:00,
2013-06-25 17:30:00,76.6,65.3,29.89,SSW,202,3.0,7.0,68,0.00,,---,0.00,VWS V14.01,2013-06-26 00:30:00,
2013-06-25 17:34:00,76.8,65.0,29.89,SSW,207,5.0,7.0,67,0.00,,,0.00,weatherlink.com 1.10,2013-06-26 00:34:00,
2013-06-25 17:45:00,76.6,65.3,29.89,SSW,202,3.0,7.0,68,0.00,,---,0.00,VWS V14.01,2013-06-26 00:45:00,
2013-06-25 17:49:00,76.8,65.0,29.88,WSW,249,6.0,8.0,68,0.00,,,0.00,weatherlink.com 1.10,2013-06-26 00:49:00,
2013-06-25 18:00:00,76.4,65.1,29.88,SW,225,3.0,9.0,68,0.00,,---,0.00,VWS V14.01,2013-06-26 01:00:00,
2013-06-25 18:04:00,75.5,65.0,29.88,South,179,2.0,9.0,70,0.00,,,0.00,weatherlink.com 1.10,2013-06-26 01:04:00,
2013-06-25 18:15:00,74.2,64.6,29.88,SSW,202,4.0,9.0,72,0.00,,---,0.00,VWS V14.01,2013-06-26 01:15:00,
2013-06-25 18:19:00,73.6,64.0,29.88,SSW,211,6.0,8.0,73,0.00,,,0.00,weatherlink.com 1.10,2013-06-26 01:19:00,
2013-06-25 18:30:00,73.2,64.4,29.88,WSW,248,4.0,8.0,74,0.00,,---,0.00,VWS V14.01,2013-06-26 01:30:00,
2013-06-25 18:34:00,73.6,64.0,29.88,SW,231,4.0,7.0,73,0.00,,,0.00,weatherlink.com 1.10,2013-06-26 01:34:00,
2013-06-25 18:45:00,74.2,64.6,29.88,SSW,202,2.0,6.0,72,0.00,,---,0.00,VWS V14.01,2013-06-26 01:45:00,
2013-06-25 18:49:00,74.4,65.0,29.88,SW,233,4.0,6.0,72,0.00,,,0.00,weatherlink.com 1.10,2013-06-26 01:49:00,
2013-06-25 19:00:00,73.4,64.6,29.88,SW,225,2.0,6.0,74,0.00,,---,0.00,VWS V14.01,2013-06-26 02:00:00,
2013-06-25 19:04:00,73.0,65.0,29.88,WSW,248,4.0,6.0,75,0.00,,,0.00,weatherlink.com 1.10,2013-06-26 02:04:00,
2013-06-25 19:15:00,72.5,64.5,29.88,SW,225,2.0,6.0,76,0.00,,---,0.00,VWS V14.01,2013-06-26 02:15:00,
2013-06-25 19:19:00,71.9,64.0,29.88,South,190,1.0,6.0,76,0.00,,,0.00,weatherlink.com 1.10,2013-06-26 02:19:00,
2013-06-25 19:30:00,71.3,64.1,29.88,SW,225,2.0,6.0,78,0.00,,---,0.00,VWS V14.01,2013-06-26 02:30:00,
2013-06-25 19:34:00,71.1,64.0,29.88,SSW,194,0.0,4.0,78,0.00,,,0.00,weatherlink.com 1.10,2013-06-26 02:34:00,
2013-06-25 19:45:00,71.4,61.9,29.88,SSW,202,2.0,6.0,72,0.00,,---,0.00,VWS V14.01,2013-06-26 02:45:00,
2013-06-25 19:49:00,71.9,62.0,29.88,West,277,0.0,6.0,71,0.00,,,0.00,weatherlink.com 1.10,2013-06-26 02:49:00,
2013-06-25 20:00:00,72.0,62.1,29.88,West,270,2.0,6.0,71,0.00,,---,0.00,VWS V14.01,2013-06-26 03:00:00,
2013-06-25 20:04:00,71.9,62.0,29.88,WSW,257,2.0,4.0,72,0.00,,,0.00,weatherlink.com 1.10,2013-06-26 03:04:00,
2013-06-25 20:15:00,71.5,62.4,29.88,West,270,1.0,4.0,73,0.00,,---,0.00,VWS V14.01,2013-06-26 03:15:00,
2013-06-25 20:19:00,71.3,62.0,29.88,WSW,248,2.0,5.0,73,0.00,,,0.00,weatherlink.com 1.10,2013-06-26 03:19:00,
2013-06-25 20:30:00,70.9,62.6,29.88,West,270,1.0,5.0,75,0.00,,---,0.00,VWS V14.01,2013-06-26 03:30:00,
2013-06-25 20:34:00,70.6,62.0,29.89,NW,310,0.0,3.0,75,0.00,,,0.00,weatherlink.com 1.10,2013-06-26 03:34:00,
2013-06-25 20:45:00,70.1,62.2,29.89,West,270,1.0,5.0,76,0.00,,---,0.00,VWS V14.01,2013-06-26 03:45:00,
2013-06-25 20:49:00,69.9,62.0,29.89,WSW,251,0.0,2.0,77,0.00,,,0.00,weatherlink.com 1.10,2013-06-26 03:49:00,
2013-06-25 21:00:00,69.5,62.3,29.89,WSW,248,0.0,2.0,78,0.00,,---,0.00,VWS V14.01,2013-06-26 04:00:00,
2013-06-25 21:04:00,69.1,62.0,29.89,WSW,251,0.0,2.0,79,0.00,,,0.00,weatherlink.com 1.10,2013-06-26 04:04:00,
2013-06-25 21:15:00,68.8,62.0,29.89,WSW,248,0.0,2.0,79,0.00,,---,0.00,VWS V14.01,2013-06-26 04:15:00,
2013-06-25 21:19:00,68.5,61.0,29.89,West,272,0.0,3.0,78,0.00,,,0.00,weatherlink.com 1.10,2013-06-26 04:19:00,
2013-06-25 21:30:00,68.3,61.2,29.90,West,270,1.0,4.0,78,0.00,,---,0.00,VWS V14.01,2013-06-26 04:30:00,
2013-06-25 21:34:00,68.1,61.0,29.90,West,263,3.0,4.0,78,0.00,,,0.00,weatherlink.com 1.10,2013-06-26 04:34:00,
2013-06-25 21:45:00,67.9,61.2,29.90,West,270,2.0,5.0,79,0.00,,---,0.00,VWS V14.01,2013-06-26 04:45:00,
2013-06-25 21:49:00,67.7,61.0,29.90,West,262,3.0,6.0,79,0.00,,,0.00,weatherlink.com 1.10,2013-06-26 04:49:00,
2013-06-25 22:00:00,67.6,61.2,29.91,West,270,1.0,6.0,80,0.00,,---,0.00,VWS V14.01,2013-06-26 05:00:00,
2013-06-25 22:04:00,67.4,61.0,29.91,WSW,244,0.0,2.0,81,0.00,,,0.00,weatherlink.com 1.10,2013-06-26 05:04:00,
2013-06-25 22:15:00,67.2,61.2,29.91,WSW,248,0.0,2.0,81,0.00,,---,0.00,VWS V14.01,2013-06-26 05:15:00,
2013-06-25 22:19:00,67.0,61.0,29.91,WSW,244,0.0,2.0,82,0.00,,,0.00,weatherlink.com 1.10,2013-06-26 05:19:00,
2013-06-25 22:30:00,66.8,61.5,29.91,WSW,248,0.0,3.0,83,0.00,,---,0.00,VWS V14.01,2013-06-26 05:30:00,
2013-06-25 22:34:00,66.6,61.0,29.91,NW,324,0.0,1.0,83,0.00,,,0.00,weatherlink.com 1.10,2013-06-26 05:34:00,
2013-06-25 22:45:00,66.4,61.1,29.91,NW,315,0.0,1.0,83,0.00,,---,0.00,VWS V14.01,2013-06-26 05:45:00,
2013-06-25 22:49:00,66.2,61.0,29.91,NW,324,0.0,1.0,84,0.00,,,0.00,weatherlink.com 1.10,2013-06-26 05:49:00,
2013-06-25 23:00:00,66.0,61.7,29.91,SW,225,0.0,2.0,86,0.00,,---,0.00,VWS V14.01,2013-06-26 06:00:00,
2013-06-25 23:04:00,65.8,62.0,29.91,SSW,212,0.0,2.0,87,0.00,,,0.00,weatherlink.com 1.10,2013-06-26 06:04:00,
2013-06-25 23:15:00,65.7,62.0,29.91,SSW,202,1.0,3.0,88,0.00,,---,0.00,VWS V14.01,2013-06-26 06:15:00,
2013-06-25 23:19:00,65.5,62.0,29.91,SSW,211,0.0,4.0,89,0.00,,,0.00,weatherlink.com 1.10,2013-06-26 06:19:00,
2013-06-25 23:30:00,65.2,61.9,29.91,SSW,202,0.0,4.0,89,0.00,,---,0.00,VWS V14.01,2013-06-26 06:30:00,
2013-06-25 23:34:00,65.1,62.0,29.91,SSW,211,0.0,2.0,89,0.00,,,0.00,weatherlink.com 1.10,2013-06-26 06:34:00,
2013-06-25 23:45:00,64.8,61.5,29.91,SSW,202,0.0,2.0,89,0.00,,---,0.00,VWS V14.01,2013-06-26 06:45:00,
2013-06-25 23:49:00,64.7,62.0,29.91,SSW,211,0.0,0.0,89,0.00,,,0.00,weatherlink.com 1.10,2013-06-26 06:49:00,